Zurück zum Katalog

STARLINK-11471

AktivKommunikationVLEO
NORAD 62225·PAYLOAD·🇺🇸 United States

Gestartet Dec 5, 2024 von Vandenberg Space Force Base

Loading…

Nächste Überflüge (nächste 24 Stunden)

TLE

AktuellSource: CelesTrak SupGP

Epoche: Sep 14, 2026, 22:29 UTC

1 62225C 24231H   26257.93729167  .00046733  00000+0  38487-3 0  2577
2 62225  53.1574 248.1359 0001152  91.2024  63.4233 15.69691337    15

Verfolge STARLINK-11471 in Echtzeit mit AllMySat

Download on the App Store